Greybull, WY

2:19 PM MST on November 22, 2019 (GMT -0700)
South Big Horn County

Weather History for KGEY - October, 2019

Change the Weather History Date:

Monday, October 21, 2019

  Actual Average Record
Temperature  
Mean Temperature 40 °F 44 °F  
Max Temperature 50 °F 58 °F 83 °F (2003)
Min Temperature 29 °F 30 °F 23 °F (1998)
Degree Days  
Heating Degree Days 26 21  
Month to date heating degree days 464 358  
Since 1 July heating degree days 639 589  
Cooling Degree Days 0 0  
Month to date cooling degree days 0 0  
Year to date cooling degree days 733 669  
Moisture  
Dew Point 29 °F    
Average Humidity 72    
Maximum Humidity 92    
Minimum Humidity 44    
Precipitation  
Precipitation T in 0.02 in 0.01 in (2008)
Month to date precipitation 0.50 0.49  
Year to date precipitation 7.82 6.82  
Sea Level Pressure  
Sea Level Pressure 30.09 in    
Wind  
Wind Speed 3 mph ()    
Max Wind Speed 21 mph    
Max Gust Speed 27 mph    
Visibility 10.0 miles    
Events      
T = Trace of Precipitation, MM = Missing Value Source: Averaged Metar Reports

Daily Weather History Graph

Daily Weather History Graph

Search for Another Location

Airport or City:

Astronomy

Oct. 21, 2019 Rise Set
Actual Time 7:35 AM MDT 6:18 PM MDT
Civil Twilight 7:05 AM MDT 6:47 PM MDT
Nautical Twilight 6:31 AM MDT 7:21 PM MDT
Astronomical Twilight 5:57 AM MDT 7:55 PM MDT
Moon No Moon Rise 3:03 PM MDT (10/21)
Length of Visible Light 11h 42m
Length of Day
10h 43m
Waning Gibbous, 47% of the Moon is Illuminated
Oct 21
Waning Gibbous
Oct 27
New
Nov 4
First Quarter
Nov 12
Full
Nov 19
Last Quarter

Hourly Weather History & Observations

Time (MDT) Temp. Windchill Dew Point Humidity Pressure Visibility Wind Dir Wind Speed Gust Speed Precip Events Conditions
12:53 AM 32.0 °F 28.7 °F 28.0 °F 85% 30.01 in 10.0 mi ESE 3.5 mph - N/A   Overcast
1:53 AM 33.1 °F 30.0 °F 28.9 °F 85% 29.99 in 10.0 mi SE 3.5 mph - N/A   Overcast
2:53 AM 34.0 °F 31.0 °F 28.9 °F 82% 30.00 in 10.0 mi East 3.5 mph - N/A   Overcast
3:53 AM 33.1 °F 28.7 °F 28.0 °F 82% 30.00 in 10.0 mi SE 4.6 mph - N/A   Mostly Cloudy
4:53 AM 33.1 °F - 28.0 °F 82% 29.99 in 10.0 mi Calm Calm - N/A   Partly Cloudy
5:53 AM 30.0 °F - 27.0 °F 88% 30.02 in 10.0 mi Calm Calm - N/A   Partly Cloudy
6:53 AM 30.9 °F - 28.0 °F 89% 30.03 in 10.0 mi Calm Calm - N/A   Overcast
7:53 AM 30.0 °F - 28.0 °F 92% 30.06 in 10.0 mi Calm Calm - N/A   Overcast
8:53 AM 33.1 °F 30.0 °F 28.9 °F 85% 30.08 in 10.0 mi ESE 3.5 mph - N/A   Mostly Cloudy
9:53 AM 37.0 °F 33.3 °F 30.9 °F 79% 30.09 in 10.0 mi ESE 4.6 mph - N/A   Scattered Clouds
10:53 AM 42.1 °F 39.2 °F 32.0 °F 67% 30.09 in 10.0 mi ESE 4.6 mph - N/A   Mostly Cloudy
11:53 AM 44.1 °F 42.5 °F 30.0 °F 58% 30.09 in 10.0 mi Variable 3.5 mph - N/A   Partly Cloudy
12:53 PM 46.0 °F - 30.0 °F 54% 30.09 in 10.0 mi Calm Calm - N/A   Partly Cloudy
1:53 PM 48.0 °F - 28.0 °F 46% 30.06 in 10.0 mi NW 6.9 mph - N/A   Mostly Cloudy
2:53 PM 46.9 °F - 28.9 °F 50% 30.07 in 10.0 mi NW 12.7 mph - N/A   Overcast
3:53 PM 46.9 °F - 30.9 °F 54% 30.09 in 10.0 mi West 6.9 mph - 0.00 in   Scattered Clouds
4:53 PM 48.9 °F - 28.0 °F 44% 30.10 in 10.0 mi NW 13.8 mph - N/A   Scattered Clouds
5:53 PM 46.0 °F 41.9 °F 28.0 °F 50% 30.14 in 10.0 mi NW 8.1 mph - N/A   Overcast
6:53 PM 42.1 °F 38.4 °F 30.9 °F 65% 30.16 in 10.0 mi West 5.8 mph - N/A   Overcast
7:53 PM 39.9 °F 35.1 °F 30.9 °F 70% 30.18 in 10.0 mi WSW 6.9 mph - N/A   Mostly Cloudy
8:53 PM 37.0 °F - 30.0 °F 76% 30.19 in 10.0 mi Calm Calm - N/A   Clear
9:53 PM 35.1 °F 29.3 °F 28.9 °F 78% 30.20 in 10.0 mi West 6.9 mph - N/A   Clear
10:53 PM 35.1 °F 32.2 °F 28.9 °F 78% 30.19 in 10.0 mi SSW 3.5 mph - N/A   Overcast
11:53 PM 35.1 °F 32.2 °F 30.0 °F 82% 30.18 in 10.0 mi East 3.5 mph - N/A   Overcast